Time,TemperatureF,DewpointF,PressureIn,WindDirection,WindDirectionDegrees,WindSpeedMPH,WindSpeedGustMPH,Humidity,HourlyPrecipIn,Conditions,Clouds,dailyrainin,SoftwareType,DateUTC
2013-02-16 00:02:00,43.0,34.0,29.97,NNE,12,1.0,6.0,69,0.00,,,0.00,,2013-02-16 05:02:00,
2013-02-16 00:12:00,43.0,34.0,29.97,NNE,12,1.0,6.0,69,0.00,,,0.00,,2013-02-16 05:12:00,
2013-02-16 00:22:00,43.0,34.0,29.96,NNE,17,2.0,7.0,69,0.00,,,0.00,,2013-02-16 05:22:00,
2013-02-16 00:32:00,43.0,33.0,29.96,North,355,1.0,8.0,68,0.00,,,0.00,,2013-02-16 05:32:00,
2013-02-16 00:42:00,43.0,33.0,29.96,North,355,1.0,8.0,68,0.00,,,0.00,,2013-02-16 05:42:00,
2013-02-16 00:52:00,43.0,34.0,29.96,NE,41,0.0,6.0,69,0.00,,,0.00,,2013-02-16 05:52:00,
2013-02-16 01:02:00,43.0,34.0,29.96,NE,41,0.0,6.0,69,0.00,,,0.00,,2013-02-16 06:02:00,
2013-02-16 01:11:00,43.0,34.0,29.96,NE,41,0.0,6.0,69,0.00,,,0.00,,2013-02-16 06:11:00,
2013-02-16 01:22:00,42.0,33.0,29.96,ENE,63,2.0,4.0,71,0.00,,,0.00,,2013-02-16 06:22:00,
2013-02-16 01:32:00,42.0,33.0,29.96,ENE,61,2.0,5.0,71,0.00,,,0.00,,2013-02-16 06:32:00,
2013-02-16 01:42:00,42.0,33.0,29.96,ENE,61,2.0,5.0,71,0.00,,,0.00,,2013-02-16 06:42:00,
2013-02-16 01:52:00,42.0,33.0,29.95,NE,43,6.0,11.0,70,0.00,,,0.00,,2013-02-16 06:52:00,
2013-02-16 02:02:00,41.0,32.0,29.94,NE,54,6.0,9.0,69,0.00,,,0.00,,2013-02-16 07:02:00,
2013-02-16 02:11:00,41.0,32.0,29.94,NE,54,6.0,9.0,69,0.00,,,0.00,,2013-02-16 07:11:00,
2013-02-16 02:21:00,41.0,31.0,29.95,North,5,5.0,10.0,68,0.00,,,0.00,,2013-02-16 07:21:00,
2013-02-16 02:32:00,41.0,31.0,29.95,NE,49,3.0,9.0,67,0.00,,,0.00,,2013-02-16 07:32:00,
2013-02-16 02:42:00,41.0,31.0,29.95,NE,49,3.0,9.0,67,0.00,,,0.00,,2013-02-16 07:42:00,
2013-02-16 02:52:00,41.0,30.0,29.94,NE,42,6.0,9.0,65,0.00,,,0.00,,2013-02-16 07:52:00,
2013-02-16 03:01:00,41.0,30.0,29.94,North,5,3.0,6.0,65,0.00,,,0.00,,2013-02-16 08:01:00,
2013-02-16 03:11:00,41.0,30.0,29.94,North,5,3.0,6.0,65,0.00,,,0.00,,2013-02-16 08:11:00,
2013-02-16 03:21:00,41.0,30.0,29.94,NE,40,4.0,7.0,65,0.00,,,0.00,,2013-02-16 08:21:00,
2013-02-16 03:32:00,41.0,30.0,29.93,NNE,13,3.0,6.0,64,0.00,,,0.00,,2013-02-16 08:32:00,
2013-02-16 03:42:00,41.0,30.0,29.93,NNE,13,3.0,6.0,64,0.00,,,0.00,,2013-02-16 08:42:00,
2013-02-16 03:52:00,41.0,30.0,29.94,NE,38,3.0,7.0,64,0.00,,,0.00,,2013-02-16 08:52:00,
2013-02-16 04:02:00,41.0,29.0,29.93,ENE,63,2.0,4.0,62,0.00,,,0.00,,2013-02-16 09:02:00,
2013-02-16 04:11:00,41.0,29.0,29.93,ENE,63,2.0,4.0,62,0.00,,,0.00,,2013-02-16 09:11:00,
2013-02-16 04:21:00,41.0,29.0,29.92,ENE,72,3.0,8.0,61,0.00,,,0.00,,2013-02-16 09:21:00,
2013-02-16 04:32:00,40.0,28.0,29.93,North,5,2.0,7.0,62,0.00,,,0.00,,2013-02-16 09:32:00,
2013-02-16 04:42:00,40.0,28.0,29.93,North,5,2.0,7.0,62,0.00,,,0.00,,2013-02-16 09:42:00,
2013-02-16 04:51:00,41.0,28.0,29.92,ENE,69,4.0,7.0,59,0.00,,,0.00,,2013-02-16 09:51:00,
2013-02-16 05:01:00,40.0,27.0,29.93,NNE,24,0.0,4.0,60,0.00,,,0.00,,2013-02-16 10:01:00,
2013-02-16 05:11:00,40.0,27.0,29.93,NNE,24,0.0,4.0,60,0.00,,,0.00,,2013-02-16 10:11:00,
2013-02-16 05:21:00,40.0,27.0,29.93,East,85,1.0,6.0,59,0.00,,,0.00,,2013-02-16 10:21:00,
2013-02-16 05:32:00,40.0,26.0,29.94,North,11,2.0,6.0,57,0.00,,,0.00,,2013-02-16 10:32:00,
2013-02-16 05:42:00,40.0,26.0,29.94,North,11,2.0,6.0,57,0.00,,,0.00,,2013-02-16 10:42:00,
2013-02-16 05:52:00,40.0,26.0,29.94,NNE,29,3.0,5.0,58,0.00,,,0.00,,2013-02-16 10:52:00,
2013-02-16 06:02:00,40.0,26.0,29.93,NE,45,3.0,6.0,57,0.00,,,0.00,,2013-02-16 11:02:00,
2013-02-16 06:11:00,40.0,26.0,29.93,NE,45,3.0,6.0,57,0.00,,,0.00,,2013-02-16 11:11:00,
2013-02-16 06:22:00,40.0,26.0,29.93,NE,45,3.0,6.0,57,0.00,,,0.00,,2013-02-16 11:22:00,
2013-02-16 06:32:00,40.0,27.0,29.96,SW,235,0.0,7.0,59,0.00,,,0.00,,2013-02-16 11:32:00,
2013-02-16 06:42:00,40.0,27.0,29.96,SW,235,0.0,7.0,59,0.00,,,0.00,,2013-02-16 11:42:00,
2013-02-16 06:52:00,40.0,27.0,29.96,NE,46,2.0,5.0,59,0.00,,,0.00,,2013-02-16 11:52:00,
2013-02-16 07:02:00,40.0,27.0,29.95,NNE,30,5.0,9.0,60,0.00,,,0.00,,2013-02-16 12:02:00,
2013-02-16 07:12:00,40.0,27.0,29.95,NNE,30,5.0,9.0,60,0.00,,,0.00,,2013-02-16 12:12:00,
2013-02-16 07:22:00,39.0,28.0,29.94,NE,34,2.0,8.0,65,0.00,,,0.00,,2013-02-16 12:22:00,
2013-02-16 07:32:00,39.0,28.0,29.95,NE,48,2.0,4.0,65,0.00,,,0.00,,2013-02-16 12:32:00,
2013-02-16 07:42:00,39.0,28.0,29.95,NE,48,2.0,4.0,65,0.00,,,0.00,,2013-02-16 12:42:00,
2013-02-16 07:52:00,38.0,28.0,29.95,NNE,24,0.0,3.0,67,0.00,,,0.00,,2013-02-16 12:52:00,
2013-02-16 08:02:00,38.0,28.0,29.95,NNE,24,0.0,3.0,67,0.00,,,0.00,,2013-02-16 13:02:00,
2013-02-16 08:12:00,38.0,28.0,29.95,NNE,24,0.0,3.0,67,0.00,,,0.00,,2013-02-16 13:12:00,
2013-02-16 08:22:00,39.0,27.0,29.94,East,94,1.0,3.0,62,0.00,,,0.00,,2013-02-16 13:22:00,
2013-02-16 08:32:00,39.0,29.0,29.94,SSE,163,1.0,3.0,68,0.00,,,0.00,,2013-02-16 13:32:00,
2013-02-16 08:42:00,39.0,29.0,29.94,SSE,163,1.0,3.0,68,0.00,,,0.00,,2013-02-16 13:42:00,
2013-02-16 08:51:00,39.0,30.0,29.94,SSE,150,1.0,3.0,69,0.00,,,0.00,,2013-02-16 13:51:00,
2013-02-16 09:01:00,39.0,30.0,29.94,SSE,150,1.0,2.0,71,0.00,,,0.00,,2013-02-16 14:01:00,
2013-02-16 09:11:00,39.0,30.0,29.94,SSE,150,1.0,2.0,71,0.00,,,0.00,,2013-02-16 14:11:00,
2013-02-16 09:21:00,39.0,31.0,29.95,SSE,150,1.0,3.0,72,0.00,,,0.00,,2013-02-16 14:21:00,
2013-02-16 09:32:00,39.0,30.0,29.95,SSE,150,0.0,3.0,71,0.00,,,0.00,,2013-02-16 14:32:00,
2013-02-16 09:42:00,39.0,30.0,29.95,SSE,150,0.0,3.0,71,0.00,,,0.00,,2013-02-16 14:42:00,
2013-02-16 09:52:00,40.0,31.0,29.93,SSE,152,1.0,3.0,70,0.00,,,0.00,,2013-02-16 14:52:00,
2013-02-16 10:02:00,40.0,31.0,29.94,SSE,152,0.0,3.0,69,0.00,,,0.00,,2013-02-16 15:02:00,
2013-02-16 10:11:00,40.0,31.0,29.94,SSE,152,0.0,3.0,69,0.00,,,0.00,,2013-02-16 15:11:00,
2013-02-16 10:22:00,40.0,30.0,29.93,South,180,2.0,5.0,67,0.00,,,0.00,,2013-02-16 15:22:00,
2013-02-16 10:32:00,41.0,29.0,29.93,NE,56,3.0,6.0,63,0.00,,,0.00,,2013-02-16 15:32:00,
2013-02-16 10:42:00,41.0,29.0,29.93,NE,56,3.0,6.0,63,0.00,,,0.00,,2013-02-16 15:42:00,
2013-02-16 10:52:00,41.0,29.0,29.93,NE,56,3.0,6.0,63,0.00,,,0.00,,2013-02-16 15:52:00,
2013-02-16 11:02:00,42.0,27.0,29.93,NNE,15,0.0,4.0,56,0.00,,,0.00,,2013-02-16 16:02:00,
2013-02-16 11:11:00,42.0,27.0,29.93,NNE,15,0.0,4.0,56,0.00,,,0.00,,2013-02-16 16:11:00,
2013-02-16 11:21:00,42.0,27.0,29.93,ESE,116,1.0,4.0,56,0.00,,,0.00,,2013-02-16 16:21:00,
2013-02-16 11:32:00,41.0,31.0,29.92,South,191,1.0,7.0,68,0.00,,,0.00,,2013-02-16 16:32:00,
2013-02-16 11:42:00,41.0,31.0,29.92,South,191,1.0,7.0,68,0.00,,,0.00,,2013-02-16 16:42:00,
2013-02-16 11:52:00,41.0,32.0,29.92,SW,217,3.0,7.0,71,0.00,,,0.00,,2013-02-16 16:52:00,
2013-02-16 12:01:00,41.0,32.0,29.91,SW,219,2.0,7.0,71,0.00,,,0.00,,2013-02-16 17:01:00,
2013-02-16 12:11:00,41.0,32.0,29.91,SW,219,2.0,7.0,71,0.00,,,0.00,,2013-02-16 17:11:00,
2013-02-16 12:22:00,41.0,33.0,29.90,South,180,4.0,8.0,72,0.00,,,0.00,,2013-02-16 17:22:00,
2013-02-16 12:32:00,41.0,32.0,29.90,SW,221,3.0,6.0,70,0.00,,,0.00,,2013-02-16 17:32:00,
2013-02-16 12:42:00,41.0,32.0,29.90,SW,221,3.0,6.0,70,0.00,,,0.00,,2013-02-16 17:42:00,
2013-02-16 12:52:00,42.0,33.0,29.89,South,182,4.0,7.0,70,0.00,,,0.00,,2013-02-16 17:52:00,
2013-02-16 13:02:00,43.0,33.0,29.88,SSW,192,1.0,8.0,67,0.00,,,0.00,,2013-02-16 18:02:00,
2013-02-16 13:11:00,43.0,31.0,29.86,SSW,192,1.0,11.0,63,0.00,,,0.00,,2013-02-16 18:11:00,
2013-02-16 13:21:00,43.0,31.0,29.86,SSW,192,1.0,11.0,63,0.00,,,0.00,,2013-02-16 18:21:00,
2013-02-16 13:33:00,44.0,32.0,29.85,SSW,194,4.0,12.0,62,0.00,,,0.00,,2013-02-16 18:33:00,
2013-02-16 13:42:00,44.0,32.0,29.85,SSW,194,4.0,12.0,62,0.00,,,0.00,,2013-02-16 18:42:00,
2013-02-16 13:52:00,42.0,31.0,29.85,West,281,2.0,8.0,64,0.00,,,0.00,,2013-02-16 18:52:00,
2013-02-16 14:02:00,38.0,32.0,29.87,North,9,1.0,6.0,80,0.00,,,0.00,,2013-02-16 19:02:00,
2013-02-16 14:11:00,38.0,32.0,29.87,North,9,1.0,6.0,80,0.00,,,0.00,,2013-02-16 19:11:00,
2013-02-16 14:22:00,35.0,32.0,29.87,North,355,1.0,4.0,89,0.00,,,0.00,,2013-02-16 19:22:00,
2013-02-16 14:32:00,34.0,32.0,29.86,North,5,3.0,10.0,91,0.00,,,0.00,,2013-02-16 19:32:00,
2013-02-16 14:42:00,34.0,32.0,29.86,North,5,3.0,10.0,91,0.00,,,0.00,,2013-02-16 19:42:00,
2013-02-16 14:52:00,34.0,32.0,29.86,NNE,29,4.0,8.0,91,0.00,,,0.00,,2013-02-16 19:52:00,
2013-02-16 15:01:00,34.0,31.0,29.86,NE,48,6.0,11.0,89,0.00,,,0.00,,2013-02-16 20:01:00,
2013-02-16 15:11:00,34.0,31.0,29.85,North,360,3.0,12.0,90,0.00,,,0.00,,2013-02-16 20:11:00,
2013-02-16 15:22:00,34.0,31.0,29.85,North,360,3.0,12.0,90,0.00,,,0.00,,2013-02-16 20:22:00,
2013-02-16 15:32:00,34.0,31.0,29.85,NNE,22,3.0,11.0,90,0.01,,,0.01,,2013-02-16 20:32:00,
2013-02-16 15:42:00,34.0,31.0,29.85,NNE,22,3.0,11.0,90,0.01,,,0.01,,2013-02-16 20:42:00,
2013-02-16 15:52:00,36.0,33.0,29.86,WNW,294,1.0,3.0,88,0.02,,,0.02,,2013-02-16 20:52:00,
2013-02-16 16:02:00,37.0,32.0,29.86,NNW,328,1.0,7.0,81,0.02,,,0.02,,2013-02-16 21:02:00,
2013-02-16 16:11:00,37.0,32.0,29.86,NNW,328,1.0,7.0,81,0.02,,,0.02,,2013-02-16 21:11:00,
2013-02-16 16:21:00,37.0,32.0,29.87,NNW,327,2.0,4.0,82,0.03,,,0.03,,2013-02-16 21:21:00,
2013-02-16 16:32:00,38.0,33.0,29.87,NNE,13,2.0,4.0,81,0.02,,,0.03,,2013-02-16 21:32:00,
2013-02-16 16:42:00,38.0,33.0,29.87,NNE,13,2.0,4.0,81,0.02,,,0.03,,2013-02-16 21:42:00,
2013-02-16 16:52:00,39.0,33.0,29.87,North,360,2.0,5.0,79,0.01,,,0.03,,2013-02-16 21:52:00,
2013-02-16 17:01:00,39.0,28.0,29.88,North,355,2.0,5.0,65,0.01,,,0.03,,2013-02-16 22:01:00,
2013-02-16 17:11:00,39.0,28.0,29.88,North,355,2.0,5.0,65,0.01,,,0.03,,2013-02-16 22:11:00,
2013-02-16 17:21:00,38.0,26.0,29.88,NNE,19,2.0,6.0,61,0.00,,,0.03,,2013-02-16 22:21:00,
2013-02-16 17:32:00,38.0,26.0,29.88,North,355,2.0,4.0,61,0.00,,,0.03,,2013-02-16 22:32:00,
2013-02-16 17:42:00,38.0,26.0,29.88,North,355,2.0,4.0,61,0.00,,,0.03,,2013-02-16 22:42:00,
2013-02-16 17:52:00,38.0,24.0,29.89,North,360,3.0,7.0,56,0.00,,,0.03,,2013-02-16 22:52:00,
2013-02-16 18:02:00,38.0,21.0,29.90,North,350,3.0,7.0,50,0.00,,,0.03,,2013-02-16 23:02:00,
2013-02-16 18:11:00,38.0,21.0,29.90,North,350,3.0,7.0,50,0.00,,,0.03,,2013-02-16 23:11:00,
2013-02-16 18:21:00,37.0,20.0,29.91,North,360,3.0,8.0,50,0.00,,,0.03,,2013-02-16 23:21:00,
2013-02-16 18:32:00,36.0,18.0,29.92,North,349,1.0,5.0,48,0.00,,,0.03,,2013-02-16 23:32:00,
2013-02-16 18:42:00,36.0,18.0,29.92,North,349,1.0,5.0,48,0.00,,,0.03,,2013-02-16 23:42:00,
2013-02-16 18:52:00,35.0,18.0,29.93,North,350,1.0,3.0,50,0.00,,,0.03,,2013-02-16 23:52:00,
2013-02-16 19:02:00,34.0,18.0,29.94,North,360,0.0,2.0,51,0.00,,,0.03,,2013-02-17 00:02:00,
2013-02-16 19:12:00,34.0,18.0,29.94,North,360,0.0,2.0,51,0.00,,,0.03,,2013-02-17 00:12:00,
2013-02-16 19:22:00,34.0,18.0,29.95,NNW,341,0.0,3.0,52,0.00,,,0.03,,2013-02-17 00:22:00,
2013-02-16 19:32:00,34.0,18.0,29.95,NNW,341,0.0,3.0,52,0.00,,,0.03,,2013-02-17 00:32:00,
2013-02-16 19:42:00,34.0,18.0,29.95,NNW,341,0.0,3.0,52,0.00,,,0.03,,2013-02-17 00:42:00,
2013-02-16 19:52:00,33.0,16.0,29.97,North,11,0.0,3.0,49,0.00,,,0.03,,2013-02-17 00:52:00,
2013-02-16 20:01:00,33.0,16.0,29.97,North,11,0.0,3.0,49,0.00,,,0.03,,2013-02-17 01:01:00,
2013-02-16 20:11:00,33.0,16.0,29.97,North,11,0.0,3.0,49,0.00,,,0.03,,2013-02-17 01:11:00,
2013-02-16 20:21:00,32.0,15.0,29.98,NNW,341,0.0,3.0,48,0.00,,,0.03,,2013-02-17 01:21:00,
2013-02-16 20:32:00,31.0,15.0,29.99,NW,319,1.0,3.0,51,0.00,,,0.03,,2013-02-17 01:32:00,
2013-02-16 20:42:00,31.0,15.0,29.99,NW,319,1.0,3.0,51,0.00,,,0.03,,2013-02-17 01:42:00,
2013-02-16 20:52:00,31.0,14.0,30.00,NW,319,0.0,2.0,48,0.00,,,0.03,,2013-02-17 01:52:00,
2013-02-16 21:01:00,31.0,15.0,30.01,NW,317,0.0,3.0,51,0.00,,,0.03,,2013-02-17 02:01:00,
2013-02-16 21:11:00,31.0,15.0,30.01,NW,317,0.0,3.0,51,0.00,,,0.03,,2013-02-17 02:11:00,
2013-02-16 21:21:00,31.0,15.0,30.01,NW,317,0.0,3.0,51,0.00,,,0.03,,2013-02-17 02:21:00,
2013-02-16 21:32:00,31.0,18.0,30.03,NW,317,0.0,2.0,58,0.00,,,0.03,,2013-02-17 02:32:00,
2013-02-16 21:42:00,31.0,18.0,30.03,NW,317,0.0,2.0,58,0.00,,,0.03,,2013-02-17 02:42:00,
2013-02-16 21:52:00,30.0,18.0,30.03,NW,317,0.0,0.0,60,0.00,,,0.03,,2013-02-17 02:52:00,
2013-02-16 22:02:00,30.0,19.0,30.04,NW,317,0.0,3.0,64,0.00,,,0.03,,2013-02-17 03:02:00,
2013-02-16 22:11:00,30.0,19.0,30.04,NW,317,0.0,3.0,64,0.00,,,0.03,,2013-02-17 03:11:00,
2013-02-16 22:21:00,30.0,20.0,30.04,NW,317,0.0,3.0,65,0.00,,,0.03,,2013-02-17 03:21:00,
2013-02-16 22:32:00,29.0,18.0,30.05,NW,304,1.0,4.0,64,0.00,,,0.03,,2013-02-17 03:32:00,
2013-02-16 22:42:00,29.0,18.0,30.05,NW,304,1.0,4.0,64,0.00,,,0.03,,2013-02-17 03:42:00,
2013-02-16 22:51:00,29.0,18.0,30.06,NW,309,1.0,4.0,64,0.00,,,0.03,,2013-02-17 03:51:00,
2013-02-16 23:01:00,29.0,20.0,30.06,NW,313,0.0,4.0,68,0.00,,,0.03,,2013-02-17 04:01:00,
2013-02-16 23:11:00,29.0,20.0,30.06,NW,313,0.0,4.0,68,0.00,,,0.03,,2013-02-17 04:11:00,
2013-02-16 23:21:00,28.0,19.0,30.06,NW,313,0.0,3.0,69,0.00,,,0.03,,2013-02-17 04:21:00,
2013-02-16 23:32:00,28.0,20.0,30.06,NW,313,0.0,1.0,70,0.00,,,0.03,,2013-02-17 04:32:00,
2013-02-16 23:42:00,28.0,20.0,30.06,NW,313,0.0,1.0,70,0.00,,,0.03,,2013-02-17 04:42:00,
2013-02-16 23:51:00,28.0,20.0,30.06,NW,313,0.0,1.0,70,0.00,,,0.03,,2013-02-17 04:51:00,